Simultaneous Nadir Overpasses (SNOs) Predictions

Prediction of SNOs between LANDSAT-8 and TERRA Satellite Orbit:

Table of predicted SNOs for the next 14.0 days since TLE Epoch: 2/25/2023
Index Date (LANDSAT-8) Time (LANDSAT-8) Lat,Lon (LANDSAT-8) SZA (LANDSAT-8 ) Date (TERRA) Time (TERRA) Lat,Lon (TERRA) SZA (TERRA ) Distance(km) Time Diff (sec)
1 03/01/2023 04:42:15 80.42,-155.54 97.91 03/01/2023 04:43:28 80.42,-155.44 97.97 2.12 73
2 03/01/2023 05:31:36 -80.26, 13.69 81.84 03/01/2023 05:32:46 -80.26, 13.61 81.81 1.57 70
3 03/01/2023 06:21:06 80.36,-179.62 97.99 03/01/2023 06:22:11 80.34,-179.46 98.06 3.27 65
4 03/01/2023 07:10:27 -80.19, -10.41 81.76 03/01/2023 07:11:29 -80.19, -10.43 81.72 0.43 62
5 03/01/2023 07:59:50 80.05, 158.39 98.44 03/01/2023 08:00:48 80.06, 158.28 98.46 2.35 58
6 03/01/2023 08:49:17 -80.08, -34.22 81.63 03/01/2023 08:50:11 -80.08, -34.19 81.58 0.72 54
7 03/01/2023 09:38:40 79.95, 134.56 98.57 03/01/2023 09:39:30 79.95, 134.50 98.60 1.20 50
8 03/01/2023 10:28:08 -80.01, -58.34 81.54 03/01/2023 10:28:54 -80.00, -58.26 81.49 1.87 46
9 03/01/2023 11:17:31 79.87, 110.42 98.66 03/01/2023 11:18:13 79.87, 110.42 98.69 0.05 42
10 03/01/2023 12:06:58 -79.90, -82.19 81.41 03/01/2023 12:07:36 -79.89, -82.06 81.36 3.02 38
11 03/01/2023 12:56:21 79.76, 86.56 98.79 03/01/2023 12:56:55 79.76, 86.61 98.83 1.11 34
12 03/01/2023 13:45:42 -79.57,-104.43 80.96 03/01/2023 13:46:13 -79.59,-104.53 80.96 2.57 31
13 03/01/2023 14:35:12 79.69, 62.41 98.87 03/01/2023 14:35:38 79.67, 62.50 98.91 2.26 26
14 03/01/2023 15:24:31 -79.42,-128.09 80.78 03/01/2023 15:24:54 -79.43,-128.14 80.77 1.41 23
15 03/01/2023 16:13:51 79.14, 41.32 99.58 03/01/2023 16:14:10 79.16, 41.19 99.57 3.32 19
16 03/01/2023 17:03:20 -79.26,-151.77 80.59 03/01/2023 17:03:35 -79.26,-151.78 80.58 0.26 15
17 03/01/2023 17:52:41 79.02, 17.35 99.72 03/01/2023 17:52:52 79.03, 17.27 99.71 2.16 11
18 03/01/2023 18:42:09 -79.10,-175.49 80.40 03/01/2023 18:42:16 -79.10,-175.45 80.39 0.90 7
19 03/01/2023 19:31:30 78.86, -6.40 99.91 03/01/2023 19:31:33 78.86, -6.44 99.90 0.99 3
20 03/01/2023 20:20:57 -78.90, 161.00 80.17 03/01/2023 20:20:56 -78.88, 161.08 80.15 2.07 1
21 03/01/2023 21:10:18 78.64, -29.96 100.14 03/01/2023 21:10:13 78.64, -29.96 100.14 0.18 5
22 03/01/2023 21:59:45 -78.69, 137.45 79.93 03/01/2023 21:59:36 -78.67, 137.56 79.91 3.23 9
23 03/01/2023 22:49:07 78.47, -53.78 100.33 03/01/2023 22:48:54 78.46, -53.73 100.33 1.36 13
24 03/01/2023 23:38:23 -78.04, 115.95 79.17 03/01/2023 23:38:07 -78.06, 115.88 79.20 2.33 16
25 03/02/2023 00:27:55 78.25, -77.41 100.57 03/02/2023 00:27:34 78.24, -77.32 100.57 2.54 21
26 03/02/2023 01:17:09 -77.73, 92.63 78.83 03/02/2023 01:16:45 -77.74, 92.60 78.86 1.16 24
27 03/02/2023 02:06:25 77.22, -97.64 101.75 03/02/2023 02:05:57 77.23, -97.73 101.70 2.97 28
28 03/02/2023 02:55:54 -77.36, 69.43 78.44 03/02/2023 02:55:22 -77.36, 69.43 78.46 0.03 32
29 03/02/2023 03:45:10 76.84,-120.95 102.14 03/02/2023 03:44:34 76.85,-121.01 102.09 1.77 36
30 03/02/2023 04:34:39 -76.99, 46.14 78.04 03/02/2023 04:33:59 -76.98, 46.17 78.07 1.21 40
31 03/02/2023 05:23:55 76.45,-144.34 102.53 03/02/2023 05:23:11 76.45,-144.36 102.49 0.55 44
32 03/02/2023 06:13:23 -76.56, 22.94 77.60 03/02/2023 06:12:35 -76.54, 23.00 77.62 2.41 48
33 03/02/2023 07:02:40 76.06,-167.81 102.93 03/02/2023 07:01:48 76.06,-167.79 102.89 0.68 52
34 03/02/2023 07:51:48 -75.18, 2.37 76.17 03/02/2023 07:50:53 -75.21, 2.29 76.25 3.10 55
35 03/02/2023 08:41:24 75.61, 168.81 103.37 03/02/2023 08:40:24 75.60, 168.86 103.33 1.92 60
36 03/02/2023 09:30:27 -74.47, -20.54 75.47 03/02/2023 09:29:24 -74.49, -20.58 75.55 1.87 63
37 03/02/2023 10:20:08 75.16, 145.35 103.82 03/02/2023 10:19:00 75.14, 145.43 103.78 3.18 68



Historial Predications of SNOs between LANDSAT-8 and TERRA
